Starlink 2674

operational
NORAD ID: 48354 Int'l Des: 2021-038 Owner: SPXS Country: US Constellation: starlink
LEOCIRCULARSTARLINK_TYPE

Über Starlink 2674

Beschreibung wird geladen...

Live-Position

3D-Globus wird geladen...

Nächste Überflüge

Höhenverlauf

Altitude vs Time

uPlot chart will show altitude changes over time

Zweizeiliger Elementsatz

1 48354U 21038B 25296.59215830 .00001706 00000-0 13340-3 0 9993
2 48354 53.0546 257.0749 0001493 90.7354 269.3806 15.06406457246361
Epoch: 23. Okt. 2025 • Age: 24 hours

Aktueller Status

Höhe 552.6 km
Geschwindigkeit 7.59 km/s
Subsatellitenpunkt 52.65°N, 102.87°E
Startdatum 4. Mai 2021
Alter 4.4 years
Typ internet

Technische Details

Klassifizierung Payload
Masse 260.00 kg
Trockenmasse 248.00 kg
Gesamtmasse 260.00 kg
Länge 0.20 m
Durchmesser 2.80 m
Spannweite 9.00 m
Form Box + pan
Hersteller SPXS
Bus-Typ Starlink
Phasenstatus In Orbit
Besitzer/Staat SPXS/US

Große Konstellationen

Loading constellations...